Location: Del Amo
(33.8464°N, 118.2104°W)
Time: 07:26:23
(UTC+00:00)

Vanguard 1 Rocket - Pass Details

Date: 16 September 2024
Orbit: 650 x 4218 km, 34.3° (Epoch: 09 October)

Event Time Altitude Azimuth Distance (km) Brightness Sun altitude
Rises 11:14:12 0° 245° (WSW) 5,059 - -29.5°
Reaches altitude 10° 11:16:51 10° 244° (WSW) 4,404 - -29.0°
Exits shadow 11:22:56 41° 238° (WSW) 3,273 9.6 -27.8°
Maximum altitude 11:30:14 79° 159° (SSE) 3,087 9.9 -26.4°
Drops below altitude 10° 11:54:45 10° 78° (ENE) 7,362 13.1 -21.7°
Sets 12:00:49 0° 78° (ENE) 8,466 13.9 -20.5°
